Location: B�retswil
(47.3376°N, 8.8534°E)
Time: 02:38:44
(UTC+00:00)

Cosmos 1633 Rocket - Pass Details

Date: 03 March 2021
Orbit: 606 x 624 km, 82.5° (Epoch: 12 April)

Event Time Altitude Azimuth Distance (km) Brightness Sun altitude
Rises 17:56:06 0° 185° (S) 2,890 6.6 -8.1°
Reaches altitude 10° 17:58:18 10° 185° (S) 1,990 5.7 -8.5°
Maximum altitude 18:02:43 84° 99° (E) 635 3.0 -9.2°
Drops below altitude 10° 18:07:11 10° 11° (N) 2,009 5.6 -10.0°
Sets 18:09:26 0° 10° (N) 2,920 6.4 -10.4°
